Location: Newark
(12.4436°N, 0.6167°W)
Time: 21:17:17
(UTC+00:00)

Vanguard 1 - Pass Details

Date: 13 December 2019
Orbit: 651 x 3832 km, 34.2° (Epoch: 17 January)

Event Time Altitude Azimuth Distance (km) Brightness Sun altitude
Rises 08:53:05 0° 304° (NW) 7,547 14.1 32.7°
Reaches altitude 10° 08:59:10 10° 310° (NW) 6,143 13.7 33.9°
Maximum altitude 09:15:39 47° 19° (NNE) 2,619 12.5 37.0°
Drops below altitude 10° 09:24:44 10° 92° (E) 3,525 13.6 38.6°
Sets 09:27:12 0° 98° (E) 4,199 13.9 39.0°
